Stations météo

Publicité
Le Luc, France (7675): Température de l'air & dewpoint: 03.07.2020 18:00:00 - 09.07.2020 18:00:00 (CEST)Le Luc, France (7675): Température de l'air 5cm: 03.07.2020 18:00:00 - 09.07.2020 18:00:00 (CEST)Le Luc, France (7675): Vitesse du vent & gusts: 03.07.2020 18:00:00 - 09.07.2020 18:00:00 (CEST)Le Luc, France (7675): Direction du vent: 03.07.2020 18:00:00 - 09.07.2020 18:00:00 (CEST)Le Luc, France (7675): reduced air pressure: 03.07.2020 18:00:00 - 09.07.2020 18:00:00 (CEST)Le Luc, France (7675): visibility: 03.07.2020 18:00:00 - 09.07.2020 18:00:00 (CEST)Le Luc, France (7675): Ensoleillement: 03.07.2020 18:00:00 - 09.07.2020 18:00:00 (CEST)Le Luc, France (7675): Quantités de précipitations: 03.07.2020 18:00:00 - 09.07.2020 18:00:00 (CEST)
Date & Time tt [°C] td [°C] tt 5cm [°C] ff [km/h] ff [knt] fx [km/h] fx [knt] dd ppp [hPa] vv [km] sd [min] rr [mm]
09.07.2020 18:00:00 32,5 13,7 38,9 10 5 40 22 SSE 1014,6 35 60 0,0
09.07.2020 17:00:00 33,1 13,7 40,4 7 4 34 18 WSW 1015,1 17 60 0,0
09.07.2020 16:00:00 32,6 13,8 40,5 15 8 27 15 ESE 1015,6 36 60 0,0
09.07.2020 15:00:00 32,0 14,2 40,7 13 7 32 18 E 1015,8 37 60 0,0
09.07.2020 14:00:00 31,9 14,5 40,7 11 6 23 12 SE 1016,2 37 60 0,0
09.07.2020 13:00:00 31,3 13,6 39,4 5 3 22 12 NE 1016,6 38 60 0,0
09.07.2020 12:00:00 30,5 12,9 37,5 4 2 15 8 E 1017,0 33 60 0,0
09.07.2020 11:00:00 28,4 12,7 35,7 5 3 11 6 SE 1017,5 35 60 0,0
09.07.2020 10:00:00 25,8 12,3 30,3 3 1 10 5 NE 1017,3 20 60 0,0
09.07.2020 09:00:00 22,9 13,1 25,3 2 1 10 5 E 1017,0 39 60 0,0
09.07.2020 08:00:00 19,5 13,0 18,7 4 2 9 5 E 1017,0 37 60 0,0
09.07.2020 07:00:00 17,1 12,0 13,1 0 0 7 4 N 1016,8 38 33 0,0
09.07.2020 06:00:00 15,9 12,1 13,0 0 0 5 3 N 1016,7 50 0 0,0
09.07.2020 05:00:00 16,2 12,4 14,0 0 0 6 3 N 1016,8 50 0 0,0
09.07.2020 04:00:00 16,9 12,2 14,9 0 0 7 4 N 1016,8 50 0 0,0
09.07.2020 03:00:00 18,0 12,7 15,9 4 2 6 4 WSW 1016,9 50 0 0,0
09.07.2020 02:00:00 18,3 12,5 16,2 0 0 6 3 N 1017,3 50 0 0,0
09.07.2020 01:00:00 19,8 12,8 17,2 0 0 6 4 N 1017,4 50 0 0,0
09.07.2020 00:00:00 21,5 12,9 18,4 3 2 6 4 SSW 1017,2 50 0 0,0
08.07.2020 23:00:00 23,7 12,7 21,3 4 2 14 8 WSW 1016,6 50 0 0,0
08.07.2020 22:00:00 24,8 12,7 22,9 10 5 14 8 WNW 1015,7 50 0 0,0
08.07.2020 21:00:00 26,7 13,1 24,9 5 3 23 12 W 1015,2 50 52 0,0
08.07.2020 20:00:00 27,8 13,7 27,5 15 8 33 18 SW 1014,9 44 60 0,0
08.07.2020 19:00:00 29,6 13,8 30,8 14 7 37 20 SW 1014,6 43 60 0,0
08.07.2020 18:00:00 30,5 15,0 36,2 16 8 37 20 SW 1014,8 40 60 0,0
08.07.2020 17:00:00 30,5 15,0 37,2 18 10 37 20 SW 1015,2 36 60 0,0
08.07.2020 16:00:00 30,5 15,8 38,0 18 10 37 20 SW 1015,5 34 60 0,0
08.07.2020 15:00:00 30,9 15,3 38,1 15 8 39 21 SW 1015,8 20 60 0,0
08.07.2020 14:00:00 30,6 15,1 35,5 14 8 32 18 WSW 1016,0 47 57 0,0
08.07.2020 13:00:00 30,7 15,5 36,6 11 6 33 18 WSW 1016,3 42 58 0,0
08.07.2020 12:00:00 30,1 15,4 34,7 11 6 23 12 SE 1016,1 19 55 0,0
08.07.2020 11:00:00 28,7 15,6 36,3 6 3 12 6 E 1016,1 35 60 0,0
08.07.2020 10:00:00 26,5 14,6 30,9 3 2 9 5 ENE 1016,3 31 60 0,0
08.07.2020 09:00:00 22,5 13,6 19,4 0 0 4 2 N 1016,4 31 50 0,0
08.07.2020 08:00:00 18,4 12,8 15,3 0 0 5 3 N 1016,2 41 30 0,0
08.07.2020 07:00:00 15,8 12,4 12,7 0 0 3 2 N 1016,1 49 16 0,0
08.07.2020 06:00:00 15,6 12,3 12,6 0 0 3 2 N 1015,7 50 0 0,0
08.07.2020 05:00:00 15,7 12,3 13,4 0 0 5 3 N 1015,7 47 0 0,0
08.07.2020 04:00:00 16,2 12,6 14,0 2 1 4 2 ESE 1015,6 17 0 0,0
08.07.2020 03:00:00 18,2 13,7 14,6 0 0 6 3 N 1015,5 50 0 0,0
08.07.2020 02:00:00 18,2 13,3 15,8 2 1 8 4 E 1015,5 45 0 0,0
08.07.2020 01:00:00 20,1 14,2 16,8 3 1 11 6 NW 1015,3 50 0 0,0
08.07.2020 00:00:00 22,1 14,5 19,1 5 3 10 6 SSW 1015,1 50 0 0,0
07.07.2020 23:00:00 23,9 14,6 20,8 0 0 13 7 N 1015,1 50 0 0,0
07.07.2020 22:00:00 25,2 14,3 21,9 2 1 9 5 N 1014,5 50 0 0,0
07.07.2020 21:00:00 27,5 14,8 26,5 9 5 19 11 SSE 1013,9 50 52 0,0
07.07.2020 20:00:00 28,8 14,6 28,8 14 8 29 16 SE 1013,4 49 60 0,0
07.07.2020 19:00:00 29,2 15,0 30,6 22 12 35 19 ESE 1013,2 41 60 0,0
07.07.2020 18:00:00 30,1 14,2 36,2 24 13 34 18 SE 1012,8 40 60 0,0
07.07.2020 17:00:00 31,2 13,5 37,3 25 13 48 26 SE 1012,8 33 60 0,0
07.07.2020 16:00:00 32,2 12,9 38,1 25 13 44 24 SE 1012,4 37 60 0,0
07.07.2020 15:00:00 32,7 10,1 40,0 22 12 46 25 SE 1011,8 38 60 0,0
07.07.2020 14:00:00 33,3 12,3 40,4 16 8 44 24 SSE 1011,2 38 57 0,0
07.07.2020 13:00:00 32,5 12,7 39,0 8 5 25 14 NW 1011,4 38 60 0,0
07.07.2020 12:00:00 30,6 11,5 36,3 14 7 26 14 W 1011,0 37 60 0,0
07.07.2020 11:00:00 28,4 10,6 33,7 13 7 24 13 W 1010,8 38 60 0,0
07.07.2020 10:00:00 26,0 9,3 29,7 10 6 20 11 WSW 1010,7 20 60 0,0
07.07.2020 09:00:00 24,1 8,1 26,0 14 8 21 11 W 1010,4 43 60 0,0
07.07.2020 08:00:00 22,0 6,6 21,3 13 7 23 12 W 1010,2 47 60 0,0
07.07.2020 07:00:00 20,4 5,6 18,7 12 6 19 10 SW 1009,8 49 34 0,0
07.07.2020 06:00:00 20,1 5,3 18,5 10 5 20 11 SW 1009,4 20 0 0,0
07.07.2020 05:00:00 20,8 5,6 19,5 11 6 27 14 SW 1008,4 20 0 0,0
07.07.2020 04:00:00 21,9 5,7 20,1 9 5 19 11 SW 1008,2 20 0 0,0
07.07.2020 03:00:00 22,3 5,7 20,9 10 5 33 18 SSW 1008,1 20 0 0,0
07.07.2020 02:00:00 23,1 5,9 22,1 20 11 47 26 W 1007,9 20 0 0,0
07.07.2020 01:00:00 23,8 6,1 22,7 23 12 41 22 W 1007,9 20 0 0,0
07.07.2020 00:00:00 24,3 7,0 23,1 21 12 55 30 WSW 1008,0 20 0 0,0
06.07.2020 23:00:00 25,9 8,8 24,9 29 15 52 28 W 1007,7 20 0 0,0
06.07.2020 22:00:00 27,2 9,5 26,0 26 14 48 26 W 1007,5 20 0 0,0
06.07.2020 21:00:00 29,2 10,3 28,1 24 13 45 25 W 1006,8 20 36 0,0
06.07.2020 20:00:00 31,3 12,6 30,9 26 14 50 27 W 1006,7 20 60 0,0
06.07.2020 19:00:00 32,5 14,6 32,8 33 18 59 32 WNW 1006,4 20 60 0,0
06.07.2020 18:00:00 33,8 15,3 37,3 42 23 56 31 WNW 1006,3 20 60 0,0
06.07.2020 17:00:00 35,4 16,2 40,6 25 14 45 24 W 1006,7 20 60 0,0
06.07.2020 16:00:00 36,0 16,2 42,9 24 13 40 22 W 1007,3 20 60 0,0
06.07.2020 15:00:00 35,8 15,5 43,2 19 10 36 20 W 1008,0 20 60 0,0
06.07.2020 14:00:00 34,9 15,8 42,3 20 11 37 20 WNW 1008,7 20 60 0,0
06.07.2020 13:00:00 33,6 17,3 41,5 8 4 18 10 SSW 1009,4 20 60 0,0
06.07.2020 12:00:00 32,6 16,0 40,0 4 2 12 7 NNW 1010,0 20 60 0,0
06.07.2020 11:00:00 30,7 15,2 37,6 4 2 13 7 NE 1010,8 20 60 0,0
06.07.2020 10:00:00 27,9 16,2 32,8 3 1 11 6 W 1011,3 20 60 0,0
06.07.2020 09:00:00 25,2 16,9 28,8 2 1 7 4 SE 1011,6 20 60 0,0
06.07.2020 08:00:00 22,1 16,1 20,1 0 0 5 3 N 1011,9 20 60 0,0
06.07.2020 07:00:00 18,9 14,8 14,9 3 2 5 3 E 1011,9 20 35 0,0
06.07.2020 06:00:00 17,1 14,2 15,1 0 0 4 2 N 1011,9 20 0 0,0
06.07.2020 05:00:00 17,9 14,2 15,5 0 0 4 2 N 1011,9 20 0 0,0
06.07.2020 04:00:00 18,9 14,8 16,8 0 0 4 2 N 1012,4 20 0 0,0
06.07.2020 03:00:00 19,1 14,8 16,9 0 0 3 2 N 1013,0 20 0 0,0
06.07.2020 02:00:00 20,3 14,6 17,6 0 0 4 2 N 1013,6 20 0 0,0
06.07.2020 01:00:00 21,9 15,5 19,2 2 1 3 2 SSW 1013,7 20 0 0,0
06.07.2020 00:00:00 23,1 15,7 20,8 3 1 6 3 E 1013,9 20 0 0,0
05.07.2020 23:00:00 24,3 14,1 22,6 5 3 9 5 E 1013,9 20 0 0,0
05.07.2020 22:00:00 26,8 15,2 25,0 8 4 13 7 NW 1013,5 20 0 0,0
05.07.2020 21:00:00 29,5 15,2 28,2 10 5 20 11 WSW 1013,6 20 53 0,0
05.07.2020 20:00:00 30,9 15,3 30,4 12 6 23 12 WSW 1013,4 20 60 0,0
05.07.2020 19:00:00 32,3 16,6 33,5 10 6 20 11 WSW 1013,6 20 60 0,0
05.07.2020 18:00:00 32,7 11,8 40,1 10 5 27 14 E 1014,1 20 60 0,0
05.07.2020 17:00:00 32,7 12,9 40,6 14 8 27 15 SE 1014,6 20 60 0,0
05.07.2020 16:00:00 32,8 14,9 41,2 12 6 24 13 ESE 1014,8 32 60 0,0
05.07.2020 15:00:00 32,8 14,4 40,7 11 6 26 14 SE 1015,4 41 60 0,0
05.07.2020 14:00:00 32,1 15,6 39,4 10 6 28 15 E 1015,7 37 60 0,0
05.07.2020 13:00:00 32,0 15,9 39,4 13 7 35 19 E 1016,0 41 60 0,0
05.07.2020 12:00:00 30,4 15,7 38,0 9 5 20 11 NE 1016,5 34 60 0,0
05.07.2020 11:00:00 29,1 14,1 36,4 5 3 14 8 NE 1016,6 34 60 0,0
05.07.2020 10:00:00 27,4 13,3 32,1 2 1 7 4 E 1016,6 37 60 0,0
05.07.2020 09:00:00 24,1 13,0 27,2 3 1 6 3 NE 1016,6 42 60 0,0
05.07.2020 08:00:00 21,1 12,2 19,1 2 1 5 3 NNE 1016,7 45 60 0,0
05.07.2020 07:00:00 17,1 11,8 12,8 4 2 5 3 WNW 1016,6 49 36 0,0
05.07.2020 06:00:00 15,5 10,9 12,9 2 1 4 2 NNE 1016,5 50 0 0,0
05.07.2020 05:00:00 15,9 11,3 13,0 0 0 4 2 N 1016,1 50 0 0,0
05.07.2020 04:00:00 16,9 11,4 14,4 4 2 6 4 SE 1016,3 50 0 0,0
05.07.2020 03:00:00 18,3 11,4 15,3 0 0 11 6 N 1016,3 50 0 0,0
05.07.2020 02:00:00 19,6 11,6 16,7 2 1 8 4 SSE 1016,7 50 0 0,0
05.07.2020 01:00:00 22,5 11,6 19,7 7 4 10 6 WSW 1016,4 50 0 0,0
05.07.2020 00:00:00 23,7 12,3 19,3 4 2 8 4 W 1016,5 50 0 0,0
04.07.2020 23:00:00 25,8 11,5 22,5 4 2 20 11 SE 1016,7 50 0 0,0
04.07.2020 22:00:00 28,0 11,9 26,4 14 8 26 14 W 1016,0 50 0 0,0
04.07.2020 21:00:00 29,7 12,2 28,3 15 8 29 16 W 1015,2 50 53 0,0
04.07.2020 20:00:00 31,5 12,8 30,7 18 10 31 17 W 1015,1 46 60 0,0
04.07.2020 19:00:00 32,5 11,6 32,8 18 10 34 18 W 1014,8 50 60 0,0
04.07.2020 18:00:00 32,0 13,2 33,6 19 10 34 18 WSW 1015,0 34 44 0,0
04.07.2020 17:00:00 31,8 13,1 35,9 19 10 34 19 WSW 1015,1 46 56 0,0
04.07.2020 16:00:00 32,2 12,9 40,0 17 9 30 16 WSW 1015,5 36 60 0,0
04.07.2020 15:00:00 32,7 10,7 40,6 11 6 38 21 NNW 1015,9 37 60 0,0
04.07.2020 14:00:00 31,6 9,8 39,9 7 4 21 11 WNW 1016,3 40 60 0,0
04.07.2020 13:00:00 30,4 11,4 37,9 11 6 23 12 SW 1016,7 49 60 0,0
04.07.2020 12:00:00 29,1 12,1 35,2 9 5 33 18 W 1016,9 38 60 0,0
04.07.2020 11:00:00 26,7 12,7 32,7 12 6 24 13 WSW 1016,9 40 60 0,0
04.07.2020 10:00:00 25,1 13,0 29,3 10 6 20 11 WSW 1017,0 41 60 0,0
04.07.2020 09:00:00 23,1 12,1 24,3 13 7 24 13 W 1017,1 49 60 0,0
04.07.2020 08:00:00 20,7 11,1 19,9 15 8 22 12 W 1017,1 50 60 0,0
04.07.2020 07:00:00 18,7 10,5 16,8 10 5 18 10 SW 1017,0 50 36 0,0
04.07.2020 06:00:00 18,2 10,3 16,8 9 5 20 11 SW 1016,4 50 0 0,0
04.07.2020 05:00:00 18,9 11,0 17,0 9 5 16 8 WSW 1015,9 50 0 0,0
04.07.2020 04:00:00 19,7 11,2 17,2 6 4 12 6 WSW 1015,7 50 0 0,0
04.07.2020 03:00:00 20,8 13,5 19,5 7 4 12 6 W 1015,7 50 0 0,0
04.07.2020 02:00:00 20,9 17,5 20,1 3 1 21 12 NE 1015,4 49 0 0,0
04.07.2020 01:00:00 22,7 12,0 20,4 10 6 18 10 SE 1015,5 50 0 0,0
04.07.2020 00:00:00 23,5 11,9 20,8 5 3 8 4 W 1014,6 50 0 0,0
03.07.2020 23:00:00 24,3 11,6 20,8 5 3 11 6 WSW 1013,7 50 0 0,0
03.07.2020 22:00:00 25,4 11,6 21,3 3 2 12 6 NW 1012,4 50 0 0,0
03.07.2020 21:00:00 26,4 11,3 25,5 11 6 32 17 NW 1011,4 50 4 0,0
03.07.2020 20:00:00 27,3 11,7 27,2 19 10 45 24 NW 1010,2 50 14 0,0
03.07.2020 19:00:00 30,0 12,0 30,9 32 17 47 26 W 1009,3 42 60 0,0
03.07.2020 18:00:00 30,6 12,5 34,9 25 14 41 22 WNW 1009,6 38 60 0,0

tt = Température de l'air
td = dewpoint
tt 5cm = Température de l'air 5cm
ff = Vitesse du vent
fx = gusts
dd = Direction du vent
ppp = reduced air pressure
vv = visibility
sd = Ensoleillement
rr = Quantités de précipitations

stations d'obs. à proximité